Flag for U.S.A. Weather past 2 weeks in West Palm Beach, Florida, U.S.A.

Now
74 °F

Mostly cloudy.


Feels Like: 74 °F
Forecast: 71 / 80 °F
Wind: 14 mph from East

Location: Palm Beach International Airport

Current Time: Mar 1, 2015 at 4:01:19 AM

Latest Report: Mar 1, 2015 at 2:53 AM


Visibility: 10 mi

Pressure: 30.25 "Hg

Humidity: 82%

Dew point: 68 °F

Location of West Palm BeachLocation

Historic Weather in West Palm Beach — Graph

°F

West Palm Beach temperature yesterday

Maximum temperature yesterday: 78 °F (at 11:53 AM)
Minimum temperature yesterday: 72 °F (at 12:53 AM)
Average temperature yesterday: 74 °F

Past Weeks' High & Low Weather Summary

 TemperatureHumidityPressure
High86 °F (Feb 26, 1:53 PM)100% (Feb 23, 7:53 AM)30.36 "Hg (Feb 23, 7:53 AM)
Low38 °F (Feb 20, 5:53 AM)15% (Feb 19, 2:53 PM)29.79 "Hg (Feb 26, 4:53 AM)
Average67 °F69%30.10 "Hg
* Reported Feb 14 2:53 AM — Mar 1 2:53 AM, West Palm Beach, Weather by CustomWeather, © 2015

Note: Actual official high and low records may vary slightly from our data, if they occured in-between our weather recording intervals... More about our weather records

Advertising

West Palm Beach weather history for previous 24 hours

 ConditionsComfort  
Time TempWeatherWind HumidityBarometerVisibility
2:53 AM
Sun, Mar 1
74 °FMostly cloudy.14 mph82%30.25 "Hg10 mi
1:53 AM74 °FPassing clouds.18 mph85%30.27 "Hg10 mi
12:53 AM74 °FPartly cloudy.17 mph85%30.28 "Hg10 mi
11:53 PM
Sat, Feb 28
74 °FPartly cloudy.16 mph85%30.29 "Hg10 mi
10:53 PM74 °FMostly cloudy.22 mph85%30.30 "Hg10 mi
9:53 PM74 °FMostly cloudy.18 mph85%30.29 "Hg10 mi
8:53 PM74 °FMostly cloudy.20 mph85%30.29 "Hg10 mi
7:53 PM74 °FMostly cloudy.18 mph85%30.27 "Hg10 mi
6:53 PM74 °FMostly cloudy.17 mph88%30.24 "Hg10 mi
5:53 PM74 °FMostly cloudy.17 mph88%30.24 "Hg10 mi
4:53 PM73 °FMostly cloudy.17 mph90%30.22 "Hg7 mi
4:01 PM73 °FStrong thunderstorms. Fog.18 mph90%30.22 "Hg1 mi
3:53 PM73 °FThunderstorms. Fog.16 mph90%30.22 "Hg3 mi
3:03 PM74 °FThunderstorms. Fog.18 mph91%30.22 "Hg3 mi
2:53 PM74 °FThunderstorms. Fog.15 mph88%30.22 "Hg2 mi
1:53 PM76 °FThunderstorms. Broken clouds.24 mph82%30.21 "Hg10 mi
12:53 PM77 °FPartly sunny.21 mph79%30.24 "Hg10 mi
11:53 AM78 °FBroken clouds.20 mph76%30.25 "Hg10 mi
10:53 AM77 °FPartly sunny.18 mph79%30.27 "Hg10 mi
9:53 AM77 °FPartly sunny.16 mph79%30.27 "Hg10 mi
8:53 AM77 °FBroken clouds.18 mph79%30.24 "Hg10 mi
7:53 AM75 °FBroken clouds.15 mph85%30.22 "Hg10 mi
6:53 AM73 °FBroken clouds.12 mph90%30.20 "Hg10 mi
5:53 AM73 °FPartly cloudy.12 mph88%30.18 "Hg10 mi
4:53 AM73 °FPartly cloudy.10 mph88%30.16 "Hg10 mi
Weather by CustomWeather, © 2015

See weather overviewHow to use our weather pages